Other Public Products
Issued by NWS Grand Forks, ND

Home | Current Version | Previous Version | Text Only | Print | Product List | Glossary Off
Versions: 1 2 3 4 5 6 7 8 9 10 11 12 13 14 15 16 17 18 19 20 21 22 23 24 25 26 27 28 29 30 31 32 33 34 35 36 37 38 39 40 41 42 43 44 45 46 47 48 49 50

000
FPUS83 KFGF 290710
OPUFGF
PRAIRIE TO PINES WEATHER ROUNDUP
NATIONAL WEATHER SERVICE EASTERN NORTH DAKOTA/GRAND FORKS ND
200 AM CDT MON AUG 29 2016

 **SATELLITE DATA USED TO AUGMENT SKY COVER AT AUTOMATED STATIONS**
 *****  WEATHER ACROSS EASTERN NORTH DAKOTA  *****

CITY           SKY/WX    TMP DP  RH WIND       PRES   REMARKS
GRAND FORKS    CLOUDY    66  61  84 CALM      29.97S
GRAND FORKS AF CLOUDY    64  62  93 SW1       29.98F
GRAND CITY NWS   N/A     66 N/A N/A MISG        N/A
BUXTON           N/A     69  69  97 SE6         N/A
DEVILS LAKE    CLOUDY    69  66  90 N10       30.04R
FARGO          CLOUDY    74  68  81 E9        29.99S
WAHPETON ARPT  CLOUDY    73  68  83 S8        30.00S
$$

 *****  WEATHER ACROSS CENTRAL AND WESTERN NORTH DAKOTA  *****

CITY           SKY/WX    TMP DP  RH WIND       PRES   REMARKS
JAMESTOWN      CLEAR     67  64  90 N3        30.01R
BISMARCK       PTCLDY    72  53  51 N10       30.06R
MINOT          CLEAR     63  54  72 NW12      30.10R
MINOT AFB      CLEAR     57  52  84 NW9       30.10R
GARRISON         N/A     64  55  72 N5        30.09R
WILLISTON      CLOUDY    63  48  58 N10       30.17R
DICKINSON      CLOUDY    65  48  54 N9        30.12R
HETTINGER      CLEAR     69  50  50 NE18      30.11R
$$

 *****  OTHER OBSERVATIONS NORTHEAST NORTH DAKOTA  *****

CITY           SKY/WX    TMP DP  RH WIND       PRES   REMARKS
WALHALLA       NOT AVBL
LANGDON        FAIR      63  59  88 NW5       30.05R
CAVALIER       PTSUNNY   66  64  94 W6        29.97R
GRAFTON        PTSUNNY   70  63  78 E12       30.01F
CANDO          NOT AVBL
FORT TOTTEN      N/A     69  69  99 N5        29.95S
ROLLA          FAIR      63  57  82 NW10      30.08R
RUGBY          FAIR      63  59  88 N7        30.07R
 ***** THE ABOVE OBSERVATIONS ARE NON NWS ARE NOT QUALITY
        CONTROLLED AND MAY MIS-REPORT RAIN FOR SNOW...
$$

 *****  OTHER OBSERVATIONS SOUTHEAST NORTH DAKOTA *****

CITY           SKY/WX    TMP DP  RH WIND       PRES   REMARKS
COOPERSTOWN    NOT AVBL
VALLEY CITY    FAIR      72  72 100 SW12      30.01R
OAKES            N/A    N/A N/A N/A MISG        N/A
GWINNER        FAIR      75  70  83 SW16      29.99S
SHEYENNE NWR     N/A     71  68  90 S3        29.95S
BUFFALO          N/A     72  69  90 SE6         N/A
WYNDMERE       NOT AVBL
 ***** THE ABOVE OBSERVATIONS ARE NON NWS ARE NOT QUALITY
       CONTROLLED AND MAY MIS-REPORT RAIN FOR SNOW...
$$

  *****  WEATHER ACROSS NORTHERN MINNESOTA  *****

CITY           SKY/WX    TMP DP  RH WIND       PRES   REMARKS
FLAG ISLAND    CLOUDY    64  63  94 S3        30.01F THUNDER
WARROAD        CLOUDY    64  61  88 E5        30.02F
ROSEAU         CLOUDY    66  61  82 SE6       30.01F
HALLOCK        CLOUDY    70  66  88 S8        29.96F THUNDER
THF RVR FALLS  CLOUDY    68  61  78 S6        30.02R
HALSTAD          N/A     67  63  85 S9          N/A
FOSSTON        TSTM      63  61  94 S10       30.02S
BAUDETTE       CLOUDY    63  61  93 SE6       30.02F
WASKISH        CLOUDY    63  61  94 E6        30.02F
CROOKSTON      CLOUDY    68  63  83 SE8       30.00R
$$
  *****  WEATHER ACROSS CENTRAL AND WEST MINNESOTA  *****

CITY           SKY/WX    TMP DP  RH WIND       PRES   REMARKS
BEMIDJI        TSTM      68  67  96 E13       30.02F
PARK RAPIDS    LGT RAIN  64  60  87 SW7       30.07F
WADENA         TSTM      66  63  88 N12G33    30.13R
DETROIT LAKES  CLOUDY    66  64  94 S12       30.09R THUNDER
MOORHEAD       CLOUDY    72  66  83 SE7       30.01S
FERGUS FALLS   CLOUDY    75  73  94 S10       30.03S
ELBOW LAKE     FAIR      72  71  97 S12       30.04S
MORRIS MN      PTCLDY    73  72  94 S9        30.04S
STAPLES        CLOUDY    72  66  83 S5        30.09R
WHEATON        PTCLDY    75  72  88 S9        30.03S
$$
  *****  WEATHER ELSEWHERE ACROSS MINNESOTA  *****

CITY           SKY/WX    TMP DP  RH WIND       PRES   REMARKS
DULUTH         CLOUDY    64  63  96 SE9       30.13F
INTRNTL FALLS  TSTM      62  60  93 VRB7      30.06F
ELY            TSTM      63  61  94 CALM      30.15R
CLOQUET        CLOUDY    63  61  94 SE6       30.13F FOG
BRAINERD       CLOUDY    71  68  90 S8        30.09R
HIBBING        TSTM      62  60  93 N18G28    30.14R FOG
ALEXANDRIA     CLOUDY    74  70  87 S14       30.08R
SAINT CLOUD    CLEAR     71  70  96 S8        30.09S
MINNEAPOLIS    PTCLDY    74  69  85 S10       30.12S
$$

  *****  WEATHER ACROSS SOUTH DAKOTA  *****

CITY           SKY/WX    TMP DP  RH WIND       PRES   REMARKS
SIOUX FALLS    CLEAR     72  32  23 S9        30.11R
BROOKINGS        N/A    N/A N/A N/A MISG        N/A
WATERTOWN      CLEAR     73  70  90 S10       30.07R
HURON          CLEAR     74  71  91 S8        30.04R
SISSETON         N/A     78  71  79 S12G22    29.99S
ABERDEEN       CLEAR     72  67  84 S10       30.01R
MITCHELL       CLEAR     74  69  85 S8        30.06R
PIERRE         CLEAR     76  59  55 SW17      30.00R
MOBRIDGE       CLEAR     68  60  75 NW6       29.98R
RAPID CITY     CLEAR     58  50  75 NW7       30.08R
$$

  *****  SOME WEATHER IN NEARBY STATES *****

CITY           SKY/WX    TMP DP  RH WIND       PRES   REMARKS
GLASGOW MT     CLEAR     59  44  57 NE8       30.20R
GREAT FALLS MT CLOUDY    57  44  62 E3        30.24R
CHEYENNE WY    CLOUDY    61  44  53 SW9       30.30R
SCOTTSBLUFF NE CLOUDY    60  53  77 CALM      30.16R
OMAHA NE       CLOUDY    71  65  81 SE9       30.14S
DES MOINES IA  CLOUDY    73  69  87 S5        30.14F THUNDER
DAVENPORT IA   PTCLDY    71  69  93 SE5       30.20S
CHICAGO IL     PTCLDY    72  68  87 E3        30.21F
EAU CLAIRE WI  PTCLDY    67  65  93 CALM      30.16F
LA CROSSE WI   CLEAR     69  68  96 SE5       30.17F
$$

  *****  SOME NATIONAL WEATHER *****

CITY           SKY/WX    TMP DP  RH WIND       PRES   REMARKS
LA GUARDIA NY  MOCLDY    77  65  66 SW9       30.14S
RALEIGH NC     CLOUDY    74  69  85 NE5       30.15F
ATLANTA GA     PTCLDY    76  67  73 E8        30.10F
NEW ORLEANS LA MOCLDY    82  74  76 E5        29.95F
OKLAHOMA CITY  PTCLDY    71  67  87 SE7       30.08F
ALBUQUERQUE NM PTCLDY    65  45  48 CALM      30.24R
SALT LAKE CITY PTCLDY    70  35  27 S6        30.16R
LOS ANGELES CA CLEAR     68  61  78 SW9       29.98R
BOISE ID       CLEAR     72  38  29 S8        30.05S
SEATTLE WA     PTCLDY    58  52  80 N5        30.06F
$$

*** WEATHER ACROSS MANITOBA...SASKATCHEWAN AND ONTARIO ***
                ***ONTARIO***

CITY           SKY/WX    TMP DP  RH WIND       PRES   REMARKS
GERALDTON      CLEAR     55  54  94 E2        30.21F
THUNDER BAY    MOCLDY    59  59 100 NE3       30.19R
SIOUX LOOKOUT  NOT AVBL
TORONTO        CLEAR     66  57  72 NW9       30.19S
BIG TROUT LK   CLEAR     63  57  82 S9        30.05F
PICKLE LAKE    NOT AVBL
DRYDEN         CLEAR     61  57  88 E3        30.07F
KENORA         MOCLDY    64  63  94 S9        30.02F
$$
                *** MANITOBA***

CITY           SKY/WX    TMP DP  RH WIND       PRES   REMARKS
BRANDON        PTCLDY    55  54  94 W8        30.07R
DAUPHIN        CLEAR     57  52  82 W12G17    30.05R
ISLAND LAKE    NOT AVBL
PILOT MOUND      N/A     61  57  88 NW9         N/A
THE PAS        CLEAR     54  45  71 W20G28    29.99S
THOMPSON       MOCLDY    59  57  94 W7        29.82S
WINNIPEG       MOCLDY    66  61  82 NE7       29.98S
LYNN LAKE      MOCLDY    48  46  93 MISG      29.81R
CHURCHILL      LGT RAIN  50  48  93 E10       29.91F FOG
GILLAM         TSTM      61  59  94 S3        29.89S
$$
                ***SASKATCHEWAN***

CITY           SKY/WX    TMP DP  RH WIND       PRES   REMARKS
ESTEVAN        CLEAR     52  48  87 NW10      30.17R
KINDERSLEY     CLEAR     43  43 100 S2        30.24S
LLOYDMINSTER   CLEAR     39  37  93 W8        30.21R
PRINCE ALBERT  CLEAR     48  43  81 W10       30.14R
REGINA         CLEAR     45  43  93 NW10      30.21R
YORKTON        PTCLDY    50  46  87 W8        30.13R   C1F1C2F2C3F3C4F4C5F5C6F6C7F7C8F8C9F9CaFaCbFbCcFcCdFdCe!



USA.gov is the U.S. government's official web portal to all federal, state and local government web resources and services.